Regional Weather Roundup
Issued by NWS Charleston, SC

Current Version | Previous Version | Graphics & Text | Print | Product List | Glossary On
Versions: 1 2 3 4 5 6 7 8 9 10 11 12 13 14 15 16 17 18 19 20 21 22 23 24 25 26 27 28 29 30 31 32 33 34 35 36 37 38 39 40 41 42 43 44 45 46 47 48 49 50
000 ASUS42 KCHS 230227 RWRCHS REGIONAL WEATHER ROUNDUP NATIONAL WEATHER SERVICE CHARLESTON SC 1000 PM EDT TUE AUG 22 2017 NOTE: "FAIR" INDICATES FEW OR NO CLOUDS BELOW 12,000 FEET WITH NO SIGNIFICANT WEATHER AND/OR OBSTRUCTIONS TO VISIBILITY. NOT ALL STATIONS ARE QUALITY CONTROLLED. USE DATA WITH CAUTION... ESPECIALLY DEWPOINT OBSERVATIONS. SCZ027-030-031-034>040-042>050-230300- ...SOUTHEAST SOUTH CAROLINA... CITY SKY/WX TMP DP RH WIND PRES REMARKS N CHARLESTON CLEAR 78 75 90 S5 29.99S WATERFRONT PRK N/A 83 77 81 VRB2 29.84S HX 92 JOHNS ISLAND FAIR 82 77 83 SW3 30.00R HX 91 PINOPOLIS N/A 81 75 83 S5 29.92F MONCKS CORNER FAIR 77 73 88 SW5 30.00R SUMMERVILLE FAIR 77 75 94 CALM 30.00S BEAUFORT MCAS PTCLDY 81 78 91 SW3 30.00S BEAUFORT ARPT FAIR 81 75 83 SW6 29.99F HILTON HEAD IS PTCLDY 82 77 83 SW6 30.01R HX 91 WALTERBORO PTCLDY 77 73 88 S6 30.01S ALLENDALE NOT AVBL ...SOUTHERN MIDLANDS AND PEE DEE... CITY SKY/WX TMP DP RH WIND PRES REMARKS GEORGETOWN FAIR 75 73 94 CALM 30.00S KINGSTREE FAIR 77 75 94 CALM 29.98S ORANGEBURG CLEAR 79 74 84 SW7 29.99S BARNWELL FAIR 82 77 83 CALM 30.00R HX 91 AIKEN FAIR 75 72 88 S6 30.03S MANNING FAIR 81 70 69 SW3 29.99S COLUMBIA PTCLDY 85 72 65 SW8 29.97R HX 91 SUMTER CLEAR 81 74 80 S6 29.96R FLORENCE CLEAR 79 75 87 S6 29.99R MYRTLE BEACH PTCLDY 82 73 74 SW8 30.00S N MYRTLE BEACH MOCLDY 82 73 74 SW15 29.99S $$ GAZ063-065-086>088-099>101-113>116-118-119-134>141-150-230300- ...SOUTHEAST GEORGIA... CITY SKY/WX TMP DP RH WIND PRES REMARKS SAVANNAH ARPT PTCLDY 79 76 90 S5 30.01S HUNTER AAF PTCLDY 81 75 83 SW3 29.98S FORT STEWART MOCLDY 78 75 90 CALM 29.98F STATESBORO PTCLDY 80 73 78 S5 30.00S SYLVANIA N/A 79 77 93 CALM 30.01S CLAXTON FAIR 80 76 87 CALM 30.00S ...CSRA...CENTRAL AND FAR SOUTHEAST GEORGIA... CITY SKY/WX TMP DP RH WIND PRES REMARKS THOMSON PTCLDY 75 74 96 NW3 30.05R AUGUSTA-BUSH PTCLDY 77 75 93 SE3 29.98R AUGUSTA-DANIEL PTCLDY 82 71 69 SW3 29.99S SWAINSBORO FAIR 79 75 89 CALM 30.01S VIDALIA CLEAR 79 77 94 S3 30.01R EASTMAN FAIR 78 78 99 CALM 30.03S HAZLEHURST FAIR 80 70 72 CALM 30.00S ALMA CLOUDY 81 74 79 SE6 30.00S WAYCROSS PTCLDY 79 76 90 CALM 30.01R JESUP FAIR 79 73 83 CALM 30.00F BAXLEY FAIR 77 77 100 CALM 30.01R BRUNSWICK PTCLDY 77 73 88 CALM 30.01S FOG SAINT SIMONS PTCLDY 83 75 77 S6 30.00S HX 90 $$ SCZ027-028-034-036>038-045-046-048>050-GAZ119-141-230300- ...LAKE AND SUPPLEMENTAL COASTAL OBSERVATIONS... STATION/POSITION TIME TEMP WIND PRES WAVE SWELL AIR SEA DIR/SP/G HT/PER HT/PER/DIR (UTC) (F) (DEG/KT/KT) (MB) (FT/S) (FT/S/D) WINYAH BAY 0145 82 230/ 6 1015.0F LAKE MURRAY 0120 83 250/ 4/ 6 1013.9 ACE BASIN NERRS 0145 80 CALM 1016.0S FORT PULASKI 0200 84 87 220/ 9/ 12 1016.2 SAPELO ISLAND 0200 83 180/ 6 1016.0 $$ ANZ835-935-AMZ111-154-330-350-352-354-370-450-454-472-230300- ...C-MAN AND BUOY OBSERVATIONS... STATION/POSITION TIME TEMP WIND PRES WAVE SWELL AIR SEA DIR/SP/G HT/PER HT/PER/DIR (UTC) (F) (DEG/KT/KT) (MB) (FT/S) (FT/S/D) BUOY 41004 0200 83 84 200/ 12/ 14 1015.4 BUOY 41008 0150 84 85 180/ 10/ 12 1015.6S 3/11 3/110/11 FOLLY BEACH CMAN 0200 83 220/ 11/ 14 1016.4S CAPERS NEARSHORE 0208 82 86 230/ 14/ 19 1015.4R FRIPP NEARSHORE 0208 84 220/ 12/ 16 1015.3R STATION/POSITION TIME TEMP WIND PRES WAVE SWELL AIR SEA DIR/SP/G HT/PER HT/PER/DIR (UTC) (F) (DEG/KT/KT) (MB) (FT/S) (FT/S/D) 5E ST. MARYS GA 0200 85 N/A 3/11 2/120/11 FRYING PAN BUOY 0200 83 84 200/ 12/ 14 1015.8 BUOY 41025 0150 84 86 220/ 17/ 21 1015.4R 5/ 9 3/130/ 9 CAPE LOOKOUT NC 0200 82 220/ 12/ 15 1015.5R BUOY 41002 0150 83 84 150/ 8/ 8 1017.2F 4/10 3/ 90/10 BUOY 41010 0200 83 85 100/ 10/ 12 1016.2 ST AUGUSTINE FL 0200 83 83 140/ 9/ 10 1016.6R $$

USA.gov is the U.S. government's official web portal to all federal, state and local government web resources and services.